When you browse on this site, cookies collect data to enhance your experience and personalize the content and advertising you see.
Visit our Privacy Policy to learn more. By continuing to use the site, you agree to this use of cookies and data.
  • Em Portugal
  • Lista de países
  • Para 7 dias
  • Temperatura da água
  • Mapa do tempo
  • Widgets de tempo
  • user-avatar
    Iniciar Sessão

    Previsão horária em Ravda

    Hoje, 16 Novembro, Sábado

    Tempo Temperatura Precipitação Vento Pressão Humidade
    00:00 +15°C° 0 mm 1 m/s 765 mmHg 86%
    01:00 +15°C° 0 mm 1 m/s 765 mmHg 87%
    02:00 +15°C° 0 mm 1 m/s 765 mmHg 87%
    03:00 +15°C° 0 mm 1 m/s 765 mmHg 87%
    04:00 +15°C° 0 mm 1 m/s 765 mmHg 86%
    05:00 +15°C° 0 mm 1 m/s 765 mmHg 86%
    06:00 +15°C° 0 mm 1 m/s 766 mmHg 84%
    07:00 +15°C° 0 mm 1 m/s 766 mmHg 83%
    08:00 +15°C° 0 mm 1 m/s 766 mmHg 82%
    09:00 +18°C° 0 mm 1 m/s 766 mmHg 74%
    10:00 +19°C° 0 mm 1 m/s 766 mmHg 66%
    11:00 +21°C° 0 mm 1 m/s 766 mmHg 58%
    12:00 +20°C° 0 mm 2 m/s 766 mmHg 56%
    13:00 +21°C° 0 mm 2 m/s 766 mmHg 54%
    14:00 +21°C° 0 mm 3 m/s 765 mmHg 52%
    15:00 +20°C° 0 mm 3 m/s 765 mmHg 61%
    16:00 +18°C° 0 mm 3 m/s 765 mmHg 71%
    17:00 +17°C° 0 mm 3 m/s 765 mmHg 80%
    18:00 +17°C° 0 mm 3 m/s 765 mmHg 83%
    19:00 +16°C° 0 mm 3 m/s 765 mmHg 87%
    20:00 +16°C° 0 mm 3 m/s 765 mmHg 91%
    21:00 +14°C° 0 mm 3 m/s 765 mmHg 91%
    22:00 +15°C° 0 mm 2 m/s 765 mmHg 91%
    23:00 +15°C° 0 mm 2 m/s 765 mmHg 92%

    Amanhã, 17 Novembro, Domingo

    Tempo Temperatura Precipitação Vento Pressão Humidade
    00:00 +15°C° 0 mm 2 m/s 765 mmHg 92%
    01:00 +15°C° 0 mm 2 m/s 765 mmHg 92%
    02:00 +15°C° 0 mm 2 m/s 765 mmHg 92%
    03:00 +14°C° 0 mm 3 m/s 765 mmHg 92%
    04:00 +13°C° 0 mm 3 m/s 765 mmHg 93%
    05:00 +13°C° 0 mm 3 m/s 764 mmHg 93%
    06:00 +14°C° 0 mm 3 m/s 764 mmHg 94%
    07:00 +14°C° 0 mm 3 m/s 765 mmHg 94%
    08:00 +14°C° 0 mm 3 m/s 765 mmHg 94%
    09:00 +15°C° 0 mm 4 m/s 765 mmHg 87%
    10:00 +17°C° 0 mm 4 m/s 764 mmHg 81%
    11:00 +19°C° 0 mm 4 m/s 764 mmHg 74%
    12:00 +19°C° 0 mm 4 m/s 764 mmHg 72%
    13:00 +19°C° 0 mm 4 m/s 763 mmHg 71%
    14:00 +19°C° 0 mm 4 m/s 763 mmHg 69%
    15:00 +18°C° 0 mm 4 m/s 763 mmHg 76%
    16:00 +17°C° 0 mm 4 m/s 763 mmHg 82%
    17:00 +15°C° 0 mm 4 m/s 763 mmHg 88%
    18:00 +16°C° 0 mm 3 m/s 763 mmHg 88%
    19:00 +17°C° 0 mm 3 m/s 763 mmHg 87%
    20:00 +17°C° 0 mm 3 m/s 763 mmHg 86%
    21:00 +17°C° 0 mm 3 m/s 763 mmHg 86%
    22:00 +17°C° 0 mm 2 m/s 763 mmHg 86%
    23:00 +17°C° 0 mm 2 m/s 763 mmHg 86%

    Depois de amanhã, 18 Novembro, Segunda-feira

    Tempo Temperatura Precipitação Vento Pressão Humidade
    00:00 +16°C° 0 mm 2 m/s 763 mmHg 88%
    01:00 +16°C° 0 mm 2 m/s 763 mmHg 89%
    02:00 +16°C° 0 mm 2 m/s 763 mmHg 90%
    03:00 +15°C° 0 mm 2 m/s 762 mmHg 91%
    04:00 +15°C° 0 mm 2 m/s 762 mmHg 92%
    05:00 +15°C° 0 mm 2 m/s 762 mmHg 93%
    06:00 +15°C° 0 mm 2 m/s 762 mmHg 93%
    07:00 +15°C° 0 mm 2 m/s 762 mmHg 93%
    08:00 +15°C° 0 mm 2 m/s 762 mmHg 93%
    09:00 +17°C° 0 mm 2 m/s 763 mmHg 83%
    10:00 +18°C° 0 mm 2 m/s 763 mmHg 73%
    11:00 +20°C° 0 mm 2 m/s 763 mmHg 63%
    12:00 +21°C° 0 mm 2 m/s 763 mmHg 60%
    13:00 +21°C° 0 mm 2 m/s 763 mmHg 57%
    14:00 +22°C° 0 mm 3 m/s 763 mmHg 53%
    15:00 +21°C° 0 mm 2 m/s 763 mmHg 59%
    16:00 +20°C° 0 mm 2 m/s 763 mmHg 64%
    17:00 +19°C° 0 mm 2 m/s 763 mmHg 70%
    18:00 +18°C° 0 mm 2 m/s 763 mmHg 71%
    19:00 +18°C° 0 mm 2 m/s 764 mmHg 72%
    20:00 +18°C° 0 mm 2 m/s 764 mmHg 74%
    21:00 +17°C° 0 mm 2 m/s 764 mmHg 75%
    22:00 +18°C° 0 mm 1 m/s 764 mmHg 76%
    23:00 +18°C° 0 mm 1 m/s 765 mmHg 77%

    19 Novembro, Terça-feira

    Tempo Temperatura Precipitação Vento Pressão Humidade
    00:00 +16°C° 0 mm 1 m/s 765 mmHg 79%
    01:00 +16°C° 0 mm 1 m/s 765 mmHg 82%
    02:00 +16°C° 0 mm 1 m/s 765 mmHg 84%
    03:00 +15°C° 0 mm 1 m/s 765 mmHg 85%
    04:00 +15°C° 0 mm 1 m/s 765 mmHg 87%
    05:00 +15°C° 0 mm 1 m/s 765 mmHg 88%
    06:00 +15°C° 0 mm 1 m/s 765 mmHg 88%
    07:00 +15°C° 0 mm 1 m/s 765 mmHg 88%
    08:00 +15°C° 0 mm 1 m/s 765 mmHg 88%
    09:00 +18°C° 0 mm 1 m/s 765 mmHg 81%
    10:00 +20°C° 0 mm 1 m/s 765 mmHg 73%
    11:00 +21°C° 0 mm 1 m/s 765 mmHg 65%
    12:00 +21°C° 0 mm 2 m/s 764 mmHg 62%
    13:00 +23°C° 0 mm 2 m/s 764 mmHg 58%
    14:00 +22°C° 0 mm 3 m/s 764 mmHg 54%
    15:00 +21°C° 0 mm 3 m/s 764 mmHg 61%
    16:00 +20°C° 0 mm 3 m/s 764 mmHg 67%
    17:00 +18°C° 0 mm 3 m/s 764 mmHg 73%
    18:00 +18°C° 0 mm 3 m/s 764 mmHg 74%
    19:00 +17°C° 0 mm 3 m/s 764 mmHg 75%
    20:00 +17°C° 0 mm 3 m/s 764 mmHg 76%
    21:00 +17°C° 0 mm 3 m/s 764 mmHg 77%
    22:00 +16°C° 0 mm 3 m/s 763 mmHg 78%
    23:00 +16°C° 0 mm 3 m/s 763 mmHg 79%

    20 Novembro, Quarta-feira

    Tempo Temperatura Precipitação Vento Pressão Humidade
    00:00 +16°C° 0 mm 2 m/s 763 mmHg 80%
    01:00 +15°C° 0 mm 2 m/s 763 mmHg 80%
    02:00 +15°C° 0 mm 2 m/s 763 mmHg 81%
    03:00 +15°C° 0 mm 2 m/s 763 mmHg 82%
    04:00 +15°C° 0 mm 2 m/s 762 mmHg 83%
    05:00 +15°C° 0 mm 2 m/s 762 mmHg 84%
    06:00 +15°C° 0 mm 2 m/s 762 mmHg 85%
    07:00 +14°C° 0 mm 3 m/s 762 mmHg 87%
    08:00 +14°C° 0 mm 3 m/s 762 mmHg 88%
    09:00 +17°C° 0 mm 3 m/s 762 mmHg 81%
    10:00 +18°C° 0 mm 4 m/s 762 mmHg 74%
    11:00 +19°C° 0 mm 4 m/s 762 mmHg 67%
    12:00 +20°C° 0 mm 3 m/s 762 mmHg 64%
    13:00 +20°C° 0 mm 3 m/s 762 mmHg 61%
    14:00 +20°C° 0 mm 2 m/s 761 mmHg 58%
    15:00 +19°C° 0 mm 3 m/s 761 mmHg 63%
    16:00 +19°C° 0 mm 3 m/s 761 mmHg 68%
    17:00 +18°C° 0 mm 4 m/s 761 mmHg 74%
    18:00 +17°C° 0.3 mm 3 m/s 762 mmHg 77%
    19:00 +17°C° 0.3 mm 3 m/s 762 mmHg 80%
    20:00 +17°C° 0.3 mm 3 m/s 762 mmHg 83%
    21:00 +17°C° 0.2 mm 3 m/s 762 mmHg 84%
    22:00 +16°C° 0.2 mm 3 m/s 762 mmHg 85%
    23:00 +16°C° 0.2 mm 3 m/s 763 mmHg 86%

    21 Novembro, Quinta-feira

    Tempo Temperatura Precipitação Vento Pressão Humidade
    00:00 +15°C° 0.2 mm 4 m/s 762 mmHg 86%
    01:00 +15°C° 0.2 mm 4 m/s 762 mmHg 86%
    02:00 +15°C° 0.2 mm 4 m/s 762 mmHg 86%
    03:00 +15°C° 0.1 mm 4 m/s 762 mmHg 88%
    04:00 +14°C° 0.1 mm 4 m/s 762 mmHg 90%
    05:00 +14°C° 0.1 mm 4 m/s 762 mmHg 93%
    06:00 +14°C° 0.1 mm 4 m/s 763 mmHg 91%
    07:00 +14°C° 0.1 mm 5 m/s 763 mmHg 90%
    08:00 +14°C° 0.1 mm 5 m/s 763 mmHg 89%
    09:00 +15°C° 0 mm 5 m/s 763 mmHg 86%
    10:00 +15°C° 0 mm 5 m/s 764 mmHg 83%
    11:00 +15°C° 0 mm 5 m/s 764 mmHg 80%
    12:00 +15°C° 0.2 mm 5 m/s 764 mmHg 81%
    13:00 +15°C° 0.2 mm 5 m/s 763 mmHg 82%
    14:00 +15°C° 0.2 mm 5 m/s 763 mmHg 83%
    15:00 +15°C° 0.1 mm 6 m/s 763 mmHg 84%
    16:00 +14°C° 0.1 mm 6 m/s 763 mmHg 85%
    17:00 +14°C° 0.1 mm 7 m/s 764 mmHg 87%
    18:00 +14°C° 0.2 mm 7 m/s 764 mmHg 86%
    19:00 +12°C° 0.2 mm 7 m/s 764 mmHg 86%
    20:00 +12°C° 0.2 mm 8 m/s 764 mmHg 86%
    21:00 +12°C° 0.3 mm 7 m/s 765 mmHg 86%
    22:00 +12°C° 0.3 mm 7 m/s 765 mmHg 85%
    23:00 +11°C° 0.3 mm 7 m/s 765 mmHg 85%
    Mostrar mais